FENGYUN 1C DEB

Satellite information

Favourite Embed

Satellite Type and Status

DEBRISIN ORBIT

Key statistics

Satellite FENGYUN 1C DEB at a glance.

Uptime

9493

Days in orbit

Revolutions

≈ 13.6

Per day

Orbit

SSO

Sun Synchronous Orbit

Inclination

99.3

Latest

Satellite identification and parameters

Extended collection of information and parameters for FENGYUN 1C DEB.

Object identification

Identified? True

Debris? True

Object name: FENGYUN 1C DEB

International designator: 1999-025DXJ

Object number (NORAD): 36281

Object ID (CCSDS): 36281

Country: PEOPLES REPUBLIC OF CHINA (PRC)

Current information (Y/N): Y

RCS size: SMALL

Orbital parameters

Period: 105.969 minutes

Inclination: 99.2584 deg

SMA: 7417.875 km

Apoapsis: 1259.702 km

Periapsis: 819.778 km

RAAN: 58.9009 deg

Eccentricy: 0.029653

Argument of periapsis: 320.5376 deg

Mean anomaly: 37.4499 deg

Mean motion: 13.58887514 rev/day

Mean motion (dot): 0.00004163 rev/day2

B* drag term: 0.0043008 1/REarth

Two-line elements (TLE)

Creation date: May 6, 2025, 3:54 a.m.

Reference frame: TEME

Reference center: EARTH

Epoch: May 5, 2025, 1:42 a.m. UTC

TLE line 0: 0 FENGYUN 1C DEB

TLE line 1: 1 36281U 99025DXJ 25125.07105244 .00004163 00000-0 43008-2 0 9994

TLE line 2: 2 36281 99.2584 58.9009 0296530 320.5376 37.4499 13.58887514815056

Live tracking on map

Real-time ground track for satellite FENGYUN 1C DEB.

In-orbit conjunctions

A list of the most updated potential collisions computed for object FENGYUN 1C DEB.

Target Orbit TCA Probability of collision Miss distance Type
METEOR 2-11 LEO 2024-06-30 09:45:02 0.000150338 817.0 (m) PAYLOAD

Associated space launch

Chinese polar orbiting meteorological satellite

FENGYUN 1C DEB was lifted into orbit during the mission ‘Long March 4B | Feng Yun 1C’, on board a Long March 4B space rocket.

The launch took place on May 10, 1999, 1:33 a.m. from Launch Complex 7.

For more information about the launch, click the button.

Launch to space Long March 4B | Feng Yun 1C
Long March 4B | Feng Yun 1C

Agency: N/A

Status: Launch Successful

Launch date: May 10, 1999, 1:33 a.m. UTC

Rocket: Long March 4B

Launch pad: Launch Complex 7

Location: Taiyuan Satellite Launch Center, People's Republic of China

...

Latest news about this satellite

There are no fresh news available about this satellite. Check back as we update our databases every day.


Newsletter sign-up

Weekly statistics, charts and insights to help you stay on top of the space industry.